Christchurch, New Zealand

3:04 PM NZDT on January 22, 2017 (GMT +1300)
Christchurch

Weather History for NZCH - July, 2013

Change the Weather History Date:

Thursday, July 11, 2013

  Actual Average Record
Temperature  
Mean Temperature 39 °F -  
Max Temperature 50 °F 50 °F 62 °F (2008)
Min Temperature 28 °F 33 °F 23 °F (2005)
Degree Days  
Heating Degree Days 26    
Moisture  
Dew Point 32 °F    
Average Humidity 80    
Maximum Humidity 93    
Minimum Humidity 50    
Precipitation  
Precipitation 0.00 in - - ()
Sea Level Pressure  
Sea Level Pressure 30.55 in    
Wind  
Wind Speed 3 mph ()    
Max Wind Speed 9 mph    
Max Gust Speed -    
Visibility 6.2 miles    
Events      
Averages and records for this station are not official NWS values.
T = Trace of Precipitation, MM = Missing Value Source: Averaged Metar Reports

Daily Weather History Graph

Daily Weather History Graph

Search for Another Location

Airport or City:

Trip Planner

Search our weather history database for the weather conditions in past years. The results will help you decide how hot, cold, wet, or windy it might be!

Date:

Astronomy

Jul. 11, 2013 Rise Set
Actual Time 8:00 AM NZST 5:10 PM NZST
Civil Twilight 7:28 AM NZST 5:42 PM NZST
Nautical Twilight 6:52 AM NZST 6:18 PM NZST
Astronomical Twilight 6:18 AM NZST 6:52 PM NZST
Moon 9:08 AM NZST (7/11) 8:10 PM NZST (7/11)
Length of Visible Light 10h 13m
Length of Day
9h 09m
Waxing Crescent, 7% of the Moon is Illuminated
Jul 11
Waxing Crescent
Jul 16
First Quarter
Jul 23
Full
Jul 30
Last Quarter
Aug 7
New

Hourly Weather History & Observations

Time (NZST) Temp. Windchill Dew Point Humidity Pressure Visibility Wind Dir Wind Speed Gust Speed Precip Events Conditions
12:00 AM 37.4 °F 34.9 °F 35.6 °F 93% 30.57 in 6.2 mi WNW 3.5 mph - N/A   Scattered Clouds
1:00 AM 33.8 °F - 32.0 °F 93% 30.57 in 6.2 mi NNW 1.2 mph - N/A   Scattered Clouds
2:00 AM 30.2 °F - 28.4 °F 93% 30.57 in 6.2 mi South 2.3 mph - N/A   Partly Cloudy
3:00 AM 32.0 °F 28.7 °F 30.2 °F 93% 30.57 in 6.2 mi WNW 3.5 mph - N/A   Partly Cloudy
4:00 AM 32.0 °F - 30.2 °F 93% 30.57 in 6.2 mi SSW 2.3 mph - N/A   Mostly Cloudy
5:00 AM 33.8 °F 30.8 °F 32.0 °F 93% 30.57 in 6.2 mi SW 3.5 mph - N/A   Mostly Cloudy
6:00 AM 35.6 °F 32.8 °F 33.8 °F 93% 30.57 in 6.2 mi West 3.5 mph - N/A   Mostly Cloudy
7:00 AM 35.6 °F - 32.0 °F 87% 30.57 in 6.2 mi ENE 1.2 mph - N/A   Mostly Cloudy
8:00 AM 35.6 °F 32.8 °F 32.0 °F 87% 30.57 in 6.2 mi North 3.5 mph - N/A   Mostly Cloudy
9:00 AM 35.6 °F - 32.0 °F 87% 30.57 in 6.2 mi WSW 1.2 mph - N/A   Mostly Cloudy
10:00 AM 37.4 °F - 33.8 °F 87% 30.60 in 6.2 mi WSW 2.3 mph - N/A   Mostly Cloudy
11:00 AM 41.0 °F 39.0 °F 35.6 °F 81% 30.60 in 6.2 mi NW 3.5 mph - N/A   Mostly Cloudy
12:00 PM 46.4 °F 45.2 °F 35.6 °F 66% 30.57 in 6.2 mi NNE 3.5 mph - N/A   Scattered Clouds
1:00 PM 50.0 °F - 32.0 °F 50% 30.54 in 6.2 mi North 3.5 mph - N/A   Scattered Clouds
2:00 PM 50.0 °F - 33.8 °F 54% 30.51 in 6.2 mi NNE 5.8 mph - N/A   Scattered Clouds
3:00 PM 48.2 °F - 35.6 °F 62% 30.51 in 6.2 mi NNE 9.2 mph - N/A   Mostly Cloudy
4:00 PM 48.2 °F - 33.8 °F 58% 30.51 in 6.2 mi NE 8.1 mph - N/A   Mostly Cloudy
5:00 PM 44.6 °F 40.2 °F 32.0 °F 61% 30.51 in 6.2 mi NNE 8.1 mph - N/A   Scattered Clouds
6:00 PM 39.2 °F 35.9 °F 30.2 °F 70% 30.51 in 6.2 mi NE 4.6 mph - N/A   Scattered Clouds
7:00 PM 39.2 °F 37.0 °F 32.0 °F 75% 30.51 in 6.2 mi NNE 3.5 mph - N/A   Scattered Clouds
8:00 PM 35.6 °F - 28.4 °F 75% 30.51 in 6.2 mi NNE 2.3 mph - N/A   Scattered Clouds
9:00 PM 32.0 °F 28.7 °F 30.2 °F 93% 30.51 in - NNW 3.5 mph - N/A   Clear
10:00 PM 28.4 °F - 24.8 °F 86% 30.51 in - NW 1.2 mph - N/A   Clear
11:00 PM 30.2 °F - 28.4 °F 93% 30.51 in - NW 2.3 mph - N/A   Clear